Temperature
25 24 23 22 21 21 21 20 20 20 19 19 19 19 19 19 18 18 18 18 18 18 18 18 18 18 18 18 18 18 18 18 18 18 18 18 18 18 18 18 18 18 17
25 24 23 22 21 21 21 21 20 20 20 19 19 19 18 18 18 18 18 18 18 18 18 18 18 18 18 18 18 18 18 18 18 18 18 18 18 18 18 18 18 18 18
26 24 23 22 22 21 21 21 20 20 20 19 19 19 18 18 18 18 18 18 18 18 18 18 18 18 18 18 18 18 18 18 18 18 18 18 18 18 18 18 18 18 18
26 25 23 23 22 21 21 20 20 20 20 19 19 19 18 18 18 18 18 18 18 18 18 18 18 18 18 18 18 18 18 18 18 18 18 18 18 18 18 18 18 18 18
27 25 24 23 22 21 20 20 20 20 20 19 19 19 18 18 18 18 18 18 18 18 18 18 18 18 18 18 17 18 18 18 18 18 18 18 18 18 18 18 18 18 18
27 26 24 23 22 21 21 20 20 20 20 19 19 19 18 18 18 18 18 18 18 18 18 18 18 18 18 18 17 17 18 18 18 18 18 18 18 18 18 18 18 18 18
28 26 24 23 22 21 21 20 20 20 19 19 19 19 19 18 18 18 18 18 18 18 18 18 18 17 18 17 17 17 17 17 17 18 18 18 18 18 18 18 18 18 18
28 26 24 23 22 22 21 20 20 20 19 19 19 19 18 18 18 18 18 18 18 18 18 17 17 17 17 17 17 17 17 17 17 17 17 17 17 17 17 17 18 18 18
28 26 25 23 22 22 21 20 20 19 19 19 19 19 18 18 18 18 18 18 18 17 17 17 17 17 17 17 17 17 17 17 17 17 17 17 17 17 17 17 17 17 17
28 27 25 24 23 22 21 20 20 19 19 19 19 19 18 18 18 18 18 17 17 17 17 17 17 17 17 17 17 17 17 17 17 17 17 17 17 17 17 17 17 17 17
28 27 25 24 23 22 21 20 20 19 19 19 19 18 18 18 18 18 17 17 17 17 17 17 17 17 17 17 17 17 17 17 17 16 16 16 17 16 16 17 17 17 16
28 27 25 24 23 22 21 20 20 19 19 19 19 18 18 18 18 18 17 17 17 17 17 17 17 17 17 17 17 16 16 16 16 16 16 16 16 16 16 16 16 16 16
27 26 25 24 23 22 21 20 20 19 19 19 18 18 18 18 18 17 17 17 17 17 17 17 17 17 17 17 16 16 16 16 16 16 16 16 16 16 16 16 16 16 16
27 26 25 24 23 22 21 21 20 20 19 19 18 18 18 17 17 17 17 17 17 17 17 16 16 16 16 16 16 16 16 15 15 15 15 15 15 15 15 15 15 15 15
26 25 24 23 22 22 21 20 20 20 19 19 18 18 17 17 17 17 17 17 16 16 16 16 16 16 16 16 15 15 15 15 15 15 15 15 15 15 15 15 15 15 14
26 25 24 23 22 21 21 20 20 19 19 18 18 17 17 17 17 17 16 16 16 16 16 16 16 16 15 15 15 15 15 15 15 14 14 14 14 14 14 14 14 14 14
25 24 23 22 21 21 20 20 19 19 18 18 18 17 17 17 16 16 16 16 16 16 16 15 15 15 15 15 15 15 15 14 14 14 14 14 14 14 13 13 13 13 13
24 23 22 21 21 20 20 19 19 18 18 17 17 17 17 16 16 16 16 15 15 15 15 15 15 15 15 14 14 14 14 14 14 14 13 13 13 13 13 13 13 13 12
23 22 21 21 20 20 19 19 19 18 17 17 17 16 16 16 16 15 15 15 15 15 15 14 14 14 14 14 14 14 13 13 13 13 13 13 13 12 12 12 12 12 12
22 21 21 20 20 19 19 19 18 18 17 17 17 16 16 16 15 15 15 14 14 14 14 14 14 14 13 13 13 13 13 13 12 12 12 12 12 12 12 11 11 11 11
20 20 20 19 19 19 18 18 17 17 17 16 16 16 16 15 15 14 14 14 14 14 13 13 13 13 13 13 13 12 12 12 12 12 11 11 11 11 11 11 11 10 10
19 19 19 18 18 18 17 17 17 16 16 16 16 15 15 14 14 14 14 14 13 13 13 13 12 12 12 12 12 12 12 11 11 11 11 10 10 10 10 10 10 10 10
18 18 18 18 17 17 17 16 16 16 16 15 15 15 15 14 14 14 13 13 13 12 12 12 12 11 11 11 11 11 11 11 11 10 10 10 10 10 10 10 9 9 9
18 17 17 17 16 16 16 16 15 15 15 15 15 14 14 14 13 13 13 13 12 12 12 11 11 11 11 10 10 10 10 10 10 10 9 9 9 9 9 9 9 9 9
17 17 16 16 15 15 15 15 15 15 14 14 14 13 13 13 13 13 12 12 12 12 11 11 11 11 10 10 10 10 10 9 9 9 9 9 9 9 9 8 8 8 8
16 16 15 15 15 15 14 14 14 14 14 14 13 13 12 12 12 12 12 11 11 11 11 10 10 10 10 9 9 9 9 9 9 9 9 8 8 8 8 8 8 8 8
Wind_Speed
13 13 12 12 11 9 9 8 8 7 6 5 5 5 4 4 4 5 7 7 6 5 3 2 3 3 2 2 2 1 2 3 2 1 1 2 4 5 4 4 4 6 8
13 13 12 12 11 10 10 9 8 9 8 6 5 4 3 4 4 4 6 8 6 5 6 4 3 4 2 2 2 2 2 3 3 2 1 1 2 3 6 5 5 5 6
15 14 13 12 12 11 10 9 8 8 8 6 4 3 2 2 3 3 4 5 6 6 5 5 4 3 3 4 4 4 4 3 3 3 2 1 2 2 3 4 4 4 4
15 15 13 12 11 10 10 7 7 7 6 6 5 5 4 4 4 3 3 4 5 5 6 5 4 3 3 3 5 5 4 4 3 3 2 2 2 1 2 2 3 5 5
15 15 13 11 10 10 9 8 7 6 5 5 5 5 4 4 3 3 3 4 4 5 6 5 4 4 3 4 4 2 3 2 3 2 2 2 2 4 3 3 3 3 3
13 14 13 12 10 10 9 8 7 6 5 5 5 4 4 4 3 4 4 4 4 4 5 5 4 4 3 3 3 3 4 3 3 2 2 2 2 3 2 2 3 3 4
13 13 13 12 11 10 9 9 8 6 5 5 4 3 4 4 4 4 4 4 4 4 5 5 3 3 3 3 3 3 3 3 4 3 3 3 3 2 2 2 3 3 3
13 14 13 12 11 11 10 9 8 7 6 5 4 3 3 3 3 4 4 4 3 4 4 4 3 4 3 4 3 3 4 4 4 4 3 3 3 3 2 2 2 3 3
13 14 14 13 11 10 9 9 8 7 6 5 4 3 3 3 2 2 3 2 2 3 4 4 4 3 3 2 3 3 3 3 3 3 3 2 3 3 3 2 2 2 3
13 14 13 13 12 11 9 9 8 7 5 5 4 4 3 2 1 1 1 1 1 1 1 2 2 2 2 3 3 3 3 3 3 2 2 2 3 3 2 2 2 2 3
13 13 12 12 12 11 11 9 8 7 6 5 4 3 3 3 2 2 2 1 1 1 1 0 1 2 2 2 3 3 2 2 3 3 2 2 2 2 2 2 2 3 2
10 13 14 12 11 11 11 10 9 8 6 5 5 4 3 3 3 3 3 2 2 1 1 0 0 1 2 2 2 3 3 3 3 3 2 2 2 2 2 3 3 3 2
10 12 12 12 10 10 9 9 9 8 7 6 6 5 3 3 3 3 3 3 2 2 1 1 0 1 1 0 0 1 1 1 1 1 1 1 1 2 2 2 3 3 3
10 11 11 11 10 9 9 9 8 7 7 6 6 5 4 3 4 3 3 3 2 2 2 2 1 1 1 1 1 1 1 0 1 1 1 2 2 2 2 2 3 3 2
10 11 11 10 10 9 8 8 7 7 7 6 6 5 5 4 4 4 4 4 3 3 3 3 3 3 2 3 2 1 1 1 2 2 3 4 5 6 5 3 3 3 2
10 10 11 11 10 10 9 8 8 7 7 6 6 5 5 5 5 5 4 4 4 4 4 4 4 5 4 6 7 4 3 3 4 4 4 4 6 6 7 9 9 7 4
9 9 9 10 9 8 8 9 8 8 7 6 6 6 6 5 5 5 5 4 4 4 4 4 5 6 7 8 8 7 4 5 5 4 4 4 5 5 4 6 7 8 9
8 8 8 9 10 9 8 8 9 8 7 7 6 6 6 5 5 5 5 4 4 4 5 5 5 5 7 8 7 7 5 6 6 6 5 4 4 4 4 4 6 7 7
8 8 8 8 8 9 9 9 9 8 7 7 6 6 6 6 6 6 5 5 5 6 6 6 6 6 7 9 8 5 5 6 7 7 7 6 6 7 6 5 5 5 4
9 9 8 8 8 7 9 9 9 8 7 7 6 6 6 6 6 6 5 5 5 6 6 7 7 7 7 10 11 7 4 5 5 6 7 10 8 8 7 4 4 4 3
11 10 9 8 7 7 8 9 9 8 7 7 7 7 7 7 7 6 5 5 6 6 6 7 6 7 8 10 12 10 5 4 5 5 5 5 9 9 9 7 4 3 3
10 10 9 9 7 7 8 9 8 8 8 7 8 7 7 6 7 6 6 6 6 6 6 6 6 6 7 9 10 11 9 7 6 5 4 5 8 9 8 5 6 6 4
9 8 9 9 8 7 8 9 8 8 9 8 8 8 8 7 6 5 5 4 4 4 4 5 5 6 6 6 9 9 9 8 5 5 6 5 5 5 4 5 5 4 3
8 7 8 9 8 8 8 8 8 9 9 8 8 8 8 8 8 6 6 5 5 4 4 4 5 5 5 4 4 4 5 5 5 4 4 4 5 4 4 4 3 3 3
7 7 8 8 8 8 8 8 8 8 9 8 8 8 8 9 9 9 8 8 7 6 5 5 5 5 5 5 6 4 4 3 3 2 2 3 3 3 3 4 5 5 5
7 7 8 8 8 8 8 7 7 8 8 7 7 7 7 7 8 8 9 15 12 14 15 12 9 7 7 6 9 10 9 8 6 5 4 4 4 5 5 5 5 5 5
Wind_Direction
162 155 156 158 159 159 163 172 181 174 176 181 188 195 196 194 197 194 183 194 212 211 219 231 174 225 213 184 192 170 209 230 217 246 259 233 224 211 204 215 209 203 199
158 156 159 163 166 165 169 176 184 180 186 187 187 193 193 204 199 202 181 193 201 211 213 208 215 208 199 198 203 194 241 247 212 205 232 276 276 249 219 202 210 209 194
161 162 168 172 170 169 175 180 179 179 188 183 184 188 180 214 206 196 183 199 203 215 233 208 229 219 204 197 207 203 216 243 250 221 183 190 240 259 261 223 211 196 192
162 165 171 171 171 169 171 168 168 174 180 181 191 192 197 208 208 199 187 196 204 214 221 223 223 232 236 201 214 208 207 229 251 253 225 219 193 226 277 277 242 207 201
161 164 167 164 163 162 162 161 159 164 170 181 191 203 214 215 208 195 187 200 207 216 225 221 216 220 232 226 222 189 199 223 243 257 256 252 238 233 227 250 254 243 213
156 156 155 152 155 158 159 158 155 162 172 186 192 204 220 223 217 200 192 205 207 214 220 217 210 218 224 232 225 204 210 224 246 269 282 271 256 255 251 254 256 248 232
150 148 149 154 158 161 158 155 155 163 172 181 191 197 216 225 220 212 204 211 207 208 207 207 198 212 220 225 220 203 226 227 228 235 260 272 266 264 254 252 263 267 258
147 149 153 155 160 161 157 154 155 162 170 174 183 186 204 223 220 215 215 218 221 213 194 189 196 206 216 226 206 214 221 220 226 238 243 269 277 285 283 259 266 282 284
149 151 154 156 158 158 153 151 150 156 165 168 171 176 190 212 216 201 218 224 219 215 184 185 192 203 208 221 208 221 233 220 219 232 233 251 273 277 277 281 276 263 280
151 150 152 154 153 152 146 143 145 149 153 155 165 163 166 159 151 167 148 191 252 258 160 175 193 211 216 213 218 226 230 220 229 229 232 245 270 278 283 286 288 270 253
150 147 145 147 148 147 147 144 143 146 148 147 148 129 139 136 132 102 92 97 74 48 69 174 224 223 216 217 222 230 216 217 230 239 231 241 264 293 309 306 298 289 272
143 143 144 146 148 150 149 148 149 150 150 145 137 124 121 118 116 105 99 97 97 86 74 111 310 271 243 237 229 235 225 217 225 240 246 241 252 258 297 307 303 299 299
142 138 141 144 149 147 144 144 148 150 148 144 137 129 120 110 102 95 93 93 92 87 59 48 14 290 294 267 259 235 222 219 235 271 285 293 298 311 309 306 305 303 297
142 142 140 140 141 139 138 142 146 146 142 137 133 129 125 115 106 97 86 81 80 84 72 43 17 10 24 25 36 88 107 73 27 28 35 29 20 355 327 319 320 312 324
149 146 146 141 141 139 141 141 138 133 130 131 128 127 124 114 107 103 94 86 75 76 68 52 37 31 29 25 19 64 107 74 59 55 60 63 61 55 42 26 11 1 4
154 149 147 146 145 146 146 140 135 130 128 129 124 119 116 112 107 103 94 89 78 66 62 58 53 49 38 35 43 55 56 59 57 56 61 74 68 68 75 68 57 47 37
152 149 146 144 141 142 137 139 134 133 133 127 122 119 117 113 108 106 98 92 86 74 66 63 62 60 43 41 48 55 66 61 57 54 47 49 50 51 65 77 65 54 50
142 138 142 143 146 142 140 136 136 136 133 126 121 120 125 123 114 104 94 85 79 74 66 63 66 64 44 38 46 57 72 66 58 50 50 61 48 43 51 76 79 68 51
132 130 131 134 136 140 140 134 133 130 126 122 118 117 117 113 108 100 89 82 80 76 71 66 62 61 45 31 38 51 88 80 68 56 48 50 55 39 49 79 90 86 81
120 119 121 119 119 127 133 129 126 120 116 114 111 107 104 103 102 98 93 88 86 84 79 71 63 61 53 36 35 38 83 88 85 70 58 54 51 34 37 61 77 75 62
116 116 115 114 109 111 117 118 115 113 112 111 105 99 97 100 101 99 97 97 93 91 88 83 74 66 59 50 45 47 63 73 81 76 65 53 49 45 43 54 59 52 38
112 116 113 108 105 109 115 115 113 111 109 105 102 99 95 95 97 98 96 98 101 100 95 89 83 72 60 53 51 53 55 59 69 73 75 68 60 55 46 49 37 33 38
111 115 115 110 104 105 110 114 113 113 112 106 102 96 91 84 86 90 95 98 97 98 96 93 86 80 74 63 58 59 59 58 69 77 79 72 64 59 54 48 39 42 51
115 116 117 115 107 103 104 109 114 116 116 114 110 105 100 87 68 59 60 61 52 68 85 84 85 83 67 52 51 71 79 85 90 94 97 87 66 56 42 44 45 52 47
110 114 112 112 110 108 108 110 116 118 119 118 115 109 98 92 78 66 53 62 54 55 64 69 75 82 78 38 36 56 56 57 66 72 85 77 73 71 69 64 55 55 49
107 110 112 115 117 115 112 111 118 124 127 126 124 118 115 111 106 97 80 58 65 64 63 63 77 77 77 70 60 55 52 49 50 60 60 64 61 63 66 66 67 62 50
Height
1531 1534 1537 1540 1541 1543 1544 1546 1548 1550 1552 1553 1555 1557 1559 1561 1562 1564 1565 1566 1567 1569 1570 1571 1572 1574 1575 1576 1577 1578 1579 1580 1581 1581 1581 1582 1582 1582 1583 1583 1584 1585 1586
1529 1533 1536 1538 1540 1541 1543 1544 1546 1548 1550 1552 1554 1556 1557 1559 1560 1562 1563 1564 1565 1567 1568 1569 1570 1572 1573 1575 1576 1577 1577 1578 1579 1580 1580 1580 1582 1580 1581 1581 1582 1583 1583
1526 1531 1534 1537 1539 1540 1541 1543 1545 1547 1548 1550 1552 1554 1556 1557 1559 1559 1560 1562 1563 1564 1566 1567 1569 1570 1572 1573 1574 1575 1575 1576 1578 1578 1579 1579 1579 1579 1580 1580 1580 1581 1581
1523 1528 1532 1535 1537 1539 1541 1542 1544 1545 1547 1549 1550 1552 1553 1554 1556 1557 1558 1559 1560 1562 1563 1564 1566 1568 1569 1570 1572 1573 1574 1575 1575 1576 1577 1578 1578 1578 1578 1578 1578 1578 1578
1520 1526 1530 1533 1536 1538 1540 1541 1542 1544 1545 1547 1548 1550 1551 1552 1554 1555 1555 1556 1558 1559 1561 1562 1563 1565 1566 1568 1569 1570 1571 1572 1573 1574 1575 1576 1576 1576 1577 1576 1576 1576 1576
1518 1524 1528 1532 1535 1538 1540 1540 1541 1543 1544 1545 1546 1548 1549 1550 1551 1552 1553 1554 1555 1556 1558 1559 1560 1562 1563 1565 1566 1568 1569 1570 1571 1572 1572 1573 1574 1574 1574 1574 1574 1574 1574
1517 1523 1527 1531 1534 1537 1539 1540 1540 1542 1543 1544 1545 1546 1547 1548 1549 1550 1551 1552 1553 1554 1555 1556 1558 1559 1561 1562 1564 1565 1566 1567 1568 1569 1570 1570 1571 1572 1572 1572 1572 1571 1572
1516 1522 1526 1530 1533 1536 1538 1539 1540 1541 1542 1543 1544 1545 1546 1546 1547 1548 1549 1550 1551 1552 1553 1554 1555 1557 1558 1560 1561 1562 1563 1564 1565 1566 1567 1567 1568 1569 1569 1569 1570 1569 1569
1515 1520 1525 1529 1532 1535 1537 1538 1539 1541 1542 1543 1543 1544 1545 1546 1546 1547 1547 1548 1549 1550 1552 1552 1553 1555 1556 1557 1558 1559 1560 1561 1562 1563 1564 1565 1565 1566 1566 1567 1567 1568 1566
1514 1519 1524 1528 1532 1534 1536 1538 1539 1540 1541 1542 1543 1544 1544 1545 1545 1546 1546 1547 1548 1549 1550 1551 1552 1553 1554 1555 1556 1557 1558 1559 1559 1560 1561 1562 1562 1563 1563 1564 1564 1564 1564
1513 1518 1523 1527 1531 1534 1536 1537 1539 1540 1541 1542 1543 1543 1544 1544 1545 1545 1546 1546 1547 1548 1548 1549 1550 1551 1552 1553 1553 1554 1555 1556 1556 1557 1558 1558 1559 1560 1560 1561 1560 1560 1560
1512 1517 1522 1527 1530 1533 1535 1537 1538 1540 1541 1541 1542 1543 1544 1544 1544 1545 1545 1545 1546 1547 1547 1548 1549 1549 1550 1550 1551 1552 1552 1553 1553 1554 1555 1555 1556 1556 1557 1557 1557 1557 1556
1514 1517 1521 1525 1530 1532 1535 1537 1538 1540 1541 1541 1542 1543 1543 1544 1544 1544 1545 1545 1546 1546 1546 1547 1547 1548 1548 1549 1549 1550 1550 1550 1551 1551 1552 1553 1553 1553 1553 1553 1553 1553 1553
1514 1518 1521 1525 1529 1532 1534 1536 1538 1540 1540 1541 1542 1542 1543 1544 1544 1544 1545 1545 1545 1545 1545 1546 1546 1547 1547 1547 1547 1548 1548 1548 1549 1549 1550 1550 1550 1550 1550 1550 1550 1550 1549
1514 1518 1521 1525 1528 1531 1534 1536 1538 1539 1540 1541 1541 1542 1543 1543 1544 1544 1545 1545 1545 1545 1545 1545 1545 1545 1545 1546 1546 1546 1546 1546 1547 1547 1547 1548 1548 1548 1548 1548 1548 1547 1547
1514 1518 1521 1524 1527 1530 1532 1535 1537 1538 1539 1540 1541 1542 1543 1543 1544 1544 1544 1545 1545 1545 1545 1545 1545 1544 1545 1545 1545 1545 1545 1545 1545 1545 1546 1546 1546 1545 1546 1546 1546 1545 1545
1514 1518 1521 1523 1526 1529 1531 1533 1535 1537 1538 1540 1541 1542 1542 1543 1544 1544 1544 1545 1545 1545 1545 1545 1544 1544 1544 1544 1544 1544 1544 1544 1544 1544 1544 1544 1544 1544 1544 1544 1544 1543 1543
1514 1517 1520 1523 1525 1528 1530 1533 1535 1537 1538 1539 1541 1541 1542 1543 1543 1544 1544 1545 1545 1545 1545 1544 1544 1544 1544 1544 1544 1544 1544 1543 1543 1543 1543 1543 1543 1543 1543 1543 1542 1542 1542
1513 1517 1520 1522 1525 1527 1530 1532 1534 1536 1538 1539 1540 1541 1542 1543 1543 1543 1544 1544 1544 1544 1544 1544 1544 1544 1544 1544 1544 1544 1543 1543 1543 1543 1542 1542 1542 1542 1542 1542 1542 1541 1541
1513 1516 1519 1522 1524 1527 1529 1531 1533 1535 1537 1538 1539 1541 1542 1542 1543 1543 1544 1544 1544 1544 1544 1544 1544 1544 1544 1544 1544 1544 1543 1543 1542 1542 1542 1542 1542 1542 1542 1542 1541 1541 1541
1514 1516 1519 1521 1524 1527 1528 1530 1532 1534 1536 1538 1539 1540 1541 1542 1543 1543 1544 1544 1544 1544 1544 1544 1544 1544 1544 1544 1544 1544 1543 1543 1543 1542 1542 1542 1542 1542 1542 1542 1542 1542 1542
1514 1517 1519 1522 1524 1527 1528 1530 1532 1534 1535 1537 1539 1540 1541 1542 1543 1543 1544 1544 1544 1545 1545 1545 1545 1545 1545 1545 1545 1544 1544 1543 1543 1543 1543 1543 1543 1543 1543 1543 1543 1543 1543
1515 1518 1520 1522 1525 1527 1529 1530 1532 1534 1535 1537 1538 1539 1541 1542 1543 1543 1544 1545 1545 1545 1545 1546 1545 1545 1545 1545 1545 1545 1545 1544 1544 1544 1544 1544 1544 1544 1543 1543 1543 1543 1543
1517 1519 1521 1523 1525 1527 1529 1530 1532 1533 1535 1537 1538 1539 1540 1541 1542 1543 1544 1544 1545 1546 1546 1546 1546 1546 1546 1546 1545 1545 1545 1545 1545 1545 1545 1545 1545 1545 1544 1544 1544 1544 1544
1518 1520 1521 1523 1525 1527 1529 1530 1532 1533 1535 1537 1538 1539 1541 1541 1542 1543 1544 1544 1545 1546 1546 1546 1546 1546 1546 1546 1546 1546 1546 1546 1546 1547 1547 1547 1546 1546 1546 1546 1545 1545 1545
1518 1520 1522 1524 1526 1527 1529 1530 1532 1534 1535 1537 1538 1540 1541 1542 1543 1543 1544 1545 1546 1547 1547 1547 1548 1547 1548 1548 1548 1548 1549 1549 1549 1549 1549 1549 1549 1548 1548 1548 1548 1547 1547